[[{"header":{"parameterUnit":"m.s-1","parameterCategory":2,"la1":30.2991,"la2":30.254,"lo1":-89.0895,"lo2":-89.0444,"dy":0.0017,"dx":0.0017,"nx":28,"ny":28,"refTime":"2023-11-16T03:00:00:Z","depth":"0","parameterNumber":2,"parameterNumberName":"U-component_of_CURRENTS"},"data":[0,0,0,0,0,0,0,0,0,0,0,0,0,0,0,0,0,0,0,0,0,0,0,0,0,0,0,0,0,0,0,0,0,0,0,0,0,0,0,0,0,0,0,0,0,0,0,0,0,0,0,0,0,0,0,0,0,0,0.1556,0.1556,0,0.1548,0.1548,0.1547,0.1537,0.1537,0.1538,0.1538,0.1531,0.1531,0.153,0,0,0,0,0,0,0,0,0,0,0,0,0,0.1572,0.1571,0.1556,0.1556,0.1557,0.1548,0.1548,0.1547,0.1537,0.1537,0.1538,0.1538,0.1531,0.1531,0.153,0,0,0,0,0,0,0,0,0,0,0,0,0,0.1561,0.1571,0.1556,0.1554,0.1554,0.1548,0.1548,0.1547,0.1537,0.1537,0.1538,0.1538,0.1531,0.1531,0.153,0.152,0,0,0.1528,0.1528,0,0,0,0,0,0,0,0,0.1561,0.156,0.1554,0.1554,0.1554,0.1548,0.1551,0.1539,0.1537,0.1539,0.1538,0.1538,0.1539,0.1538,0.153,0.152,0.1519,0.1528,0.1528,0.1528,0.1528,0,0,0,0,0,0,0,0.1562,0.156,0.1549,0.1554,0.1554,0.1557,0.1555,0.1548,0.1534,0.1539,0.1539,0.1545,0.1539,0.153,0.153,0.1519,0.1528,0.1528,0.1527,0.1527,0.1535,0.1536,0,0,0,0,0,0,0.157,0.156,0.1549,0.1549,0.1563,0.1556,0.1554,0.1546,0.1534,0.1534,0.1544,0.1544,0.1531,0.153,0.1529,0.1568,0.1528,0.1527,0.1527,0.1535,0.1535,0.1536,0,0,0,0,0,0,0.157,0.1569,0.1549,0.1559,0.1557,0.1556,0.1547,0.1546,0.1542,0.1539,0.1538,0.1543,0.1531,0.153,0.154,0.1566,0.1527,0.1526,0.1534,0.1535,0.1536,0.1614,0,0,0,0,0,0,0.1571,0.1568,0.1562,0.1559,0.1557,0.1555,0.1547,0.1545,0.1547,0.1546,0.1538,0.1537,0.1532,0.1541,0.1539,0.1565,0.1526,0.1533,0.1534,0.1535,0.161,0.1617,0.1623,0,0,0,0,0,0.1571,0.1565,0.1561,0.1561,0.1549,0.1556,0.1554,0.1552,0.1546,0.1548,0.1549,0.1537,0.1546,0.1541,0.1539,0.1565,0.1533,0.1534,0.1535,0.1608,0.1616,0.1623,0,0,0,0,0,0,0.1569,0.1564,0.156,0.1552,0.1558,0.1556,0.1558,0.1554,0.1553,0.1559,0.1545,0.1545,0.1564,0.1547,0.1542,0.1568,0.1537,0.1538,0.1592,0.16,0.1606,0.1627,0.1525,0,0,0,0,0,0.1566,0.1558,0.1561,0.1555,0.156,0.1558,0.1559,0.1564,0.1566,0.1565,0.1559,0.1557,0.1566,0.157,0.1568,0.1581,0.1578,0.1594,0.16,0.1606,0.162,0.162,0.1629,0.154,0.154,0.154,0,0,0.1568,0.1561,0.1559,0.1555,0.1557,0.1576,0.1558,0.1572,0.1593,0.1565,0.1584,0.1578,0.1572,0.1595,0.1601,0.1586,0.1634,0.1607,0.1612,0.1624,0.1623,0.1631,0.1639,0.1541,0.1541,0.1541,0,0,0.1575,0.156,0.1563,0.1572,0.1585,0.1589,0.1595,0.1601,0.1608,0.1626,0.1619,0.1634,0.1627,0.1643,0.1648,0.1684,0.1666,0.1672,0.1726,0.1726,0.1734,0.174,0.1773,0.1782,0.1677,0.1677,0.1677,0,0.1577,0.1581,0.1568,0.1582,0.1601,0.1599,0.1627,0.1634,0.1643,0.1662,0.1644,0.1665,0.1659,0.1705,0.1719,0.1702,0.1701,0.1702,0.1736,0.1742,0.1748,0.178,0.1789,0.1681,0.168,0.168,0.168,0,0.1596,0.1606,0.1613,0.1629,0.1644,0.1669,0.1689,0.1706,0.1712,0.1723,0.1761,0.1755,0.1767,0.177,0.1758,0.1799,0.1787,0.1745,0.1722,0.1762,0.1793,0.1801,0.1686,0.1685,0.1684,0.1683,0,0,0.159,0.1621,0.1624,0.1651,0.1678,0.1698,0.1738,0.178,0.1815,0.1822,0.1863,0.1885,0.1874,0.1878,0.1864,0.1873,0.1919,0.1828,0.1826,0.1872,0.1942,0.1955,0.1964,0.1872,0.1873,0.1874,0.1958,0,0.1614,0.1654,0.1664,0.172,0.1752,0.1773,0.1813,0.1852,0.1873,0.1905,0.1919,0.1942,0.1917,0.1921,0.1931,0.1912,0.1938,0.1902,0.1887,0.1888,0.1902,0.1973,0.1876,0.1943,0.1965,0.1967,0.1968,0,0.1636,0.1662,0.1717,0.1782,0.1799,0.1832,0.1904,0.1939,0.1986,0.2001,0.2028,0.2018,0.2051,0.2001,0.2027,0.1999,0.1985,0.1974,0.1975,0.1965,0.1915,0.19,0.1956,0.1716,0.1979,0.1978,0.1978,0,0.1648,0.1704,0.1751,0.1773,0.1839,0.1877,0.1914,0.1971,0.2009,0.2053,0.2071,0.2102,0.2104,0.2097,0.207,0.2045,0.2086,0.2042,0.2058,0.206,0.1966,0.1957,0.1796,0.2068,0.2068,0.2068,0.2067,0,0.1673,0.1712,0.1762,0.1792,0.1865,0.19,0.1974,0.2015,0.2063,0.2113,0.2113,0.2143,0.2118,0.2126,0.2106,0.212,0.2116,0.21,0.2087,0.1993,0.1986,0.1763,0.1702,0.2071,0.207,0.2069,0.2069,0,0.1682,0.171,0.1775,0.1847,0.1873,0.1925,0.2002,0.2055,0.2089,0.2147,0.2156,0.2176,0.2197,0.2187,0.2182,0.2167,0.2081,0.2172,0.2087,0.2063,0.1872,0.1823,0.1765,0.1731,0.2231,0.2232,0.2233,0,0.1695,0.1725,0.1807,0.1853,0.1888,0.1958,0.2015,0.2066,0.2114,0.2171,0.2201,0.2225,0.2252,0.2273,0.2245,0.2253,0.2098,0.2159,0.2101,0.1875,0.1809,0.1757,0.1729,0.2016,0.2015,0.2014,0.2013,0,0.1729,0.1751,0.1802,0.1888,0.1954,0.2016,0.2089,0.2116,0.2175,0.2209,0.2256,0.2275,0.2302,0.2251,0.2249,0.2231,0.2001,0.2146,0.1903,0.1646,0.1585,0.1539,0.1967,0.2005,0.2006,0.2007,0.2007,0.2008,0.1759,0.1795,0.1861,0.1949,0.2014,0.2069,0.2084,0.2139,0.2185,0.219,0.2253,0.2224,0.2164,0.2159,0.2124,0.1889,0.1987,0.1747,0.172,0.1696,0.1615,0.2064,0.2085,0.2086,0.2087,0.2088,0.2089,0,0.1815,0.1854,0.1926,0.2013,0.2071,0.2097,0.2137,0.211,0.2122,0.213,0.2142,0.2007,0.1899,0.179,0.1585,0.1422,0.139,0.1289,0.1115,0.1124,0.1479,0.141,0.1291,0.1291,0.1291,0.1292,0.1292,0.1292,0.1849,0.1922,0.1958,0.206,0.2101,0.2105,0.2098,0.2033,0.1997,0.1871,0.1762,0.1717,0.1497,0.1153,0.0851,0.0842,0.0683,0.0687,0.0682,0.0784,0.0819,0.0853,0.0763,0.0511,0.051,0.0259,0.0256,0.0254]},{"header":{"parameterUnit":"m.s-1","parameterCategory":2,"la1":30.2991,"la2":30.254,"lo1":-89.0895,"lo2":-89.0444,"dy":0.0017,"dx":0.0017,"nx":28,"ny":28,"refTime":"2023-11-16T03:00:00:Z","depth":"0","parameterNumber":3,"parameterNumberName":"V-component_of_CURRENTS"},"data":[0,0,0,0,0,0,0,0,0,0,0,0,0,0,0,0,0,0,0,0,0,0,0,0,0,0,0,0,0,0,0,0,0,0,0,0,0,0,0,0,0,0,0,0,0,0,0,0,0,0,0,0,0,0,0,0,0,0,-0.0475,-0.0475,0,-0.0466,-0.0466,-0.0465,-0.0438,-0.0438,-0.0438,-0.0438,-0.0441,-0.0441,-0.0441,0,0,0,0,0,0,0,0,0,0,0,0,0,-0.0472,-0.0472,-0.0475,-0.0475,-0.0476,-0.0466,-0.0466,-0.0465,-0.0438,-0.0438,-0.0438,-0.0438,-0.0441,-0.0441,-0.0441,0,0,0,0,0,0,0,0,0,0,0,0,0,-0.0465,-0.0472,-0.0475,-0.0465,-0.0464,-0.0466,-0.0466,-0.0465,-0.0438,-0.0438,-0.0438,-0.0438,-0.0441,-0.0441,-0.0441,-0.0446,0,0,-0.0442,-0.0442,0,0,0,0,0,0,0,0,-0.0465,-0.0464,-0.0466,-0.0466,-0.0465,-0.0458,-0.0466,-0.0461,-0.0438,-0.0443,-0.0438,-0.0438,-0.0451,-0.045,-0.0442,-0.0446,-0.0447,-0.0442,-0.0442,-0.0442,-0.0442,0,0,0,0,0,0,0,-0.0466,-0.0464,-0.0466,-0.0467,-0.0466,-0.0463,-0.0461,-0.0464,-0.0444,-0.0442,-0.0442,-0.0449,-0.045,-0.0441,-0.0442,-0.0447,-0.0442,-0.0442,-0.0442,-0.0442,-0.0478,-0.0478,0,0,0,0,0,0,-0.0477,-0.0465,-0.0466,-0.0466,-0.047,-0.0463,-0.0461,-0.0456,-0.0444,-0.0443,-0.0449,-0.0448,-0.0441,-0.0441,-0.0442,-0.0498,-0.0442,-0.0442,-0.0443,-0.0477,-0.0478,-0.0479,0,0,0,0,0,0,-0.0477,-0.0477,-0.0467,-0.047,-0.0469,-0.0464,-0.0458,-0.0456,-0.0449,-0.045,-0.0448,-0.0445,-0.0441,-0.0441,-0.0456,-0.0496,-0.0443,-0.0443,-0.0476,-0.0477,-0.0478,-0.0578,0,0,0,0,0,0,-0.0476,-0.0476,-0.0474,-0.0471,-0.047,-0.0471,-0.0459,-0.0456,-0.0456,-0.0454,-0.0446,-0.0446,-0.0441,-0.0455,-0.0456,-0.0495,-0.0443,-0.0475,-0.0476,-0.0478,-0.0574,-0.0583,-0.059,0,0,0,0,0,-0.0476,-0.0477,-0.0473,-0.0474,-0.0467,-0.0472,-0.0471,-0.0463,-0.0456,-0.0455,-0.0457,-0.0446,-0.0465,-0.0456,-0.0457,-0.0497,-0.0474,-0.0476,-0.0478,-0.057,-0.0581,-0.059,0,0,0,0,0,0,-0.0482,-0.0475,-0.0471,-0.0471,-0.0474,-0.047,-0.0472,-0.0466,-0.0463,-0.0468,-0.0457,-0.0458,-0.0484,-0.0469,-0.046,-0.0508,-0.0467,-0.0469,-0.0538,-0.0547,-0.0555,-0.0568,-0.0443,0,0,0,0,0,-0.0482,-0.0476,-0.0476,-0.0479,-0.0481,-0.0475,-0.0476,-0.0477,-0.0478,-0.0476,-0.0471,-0.0474,-0.049,-0.0502,-0.0501,-0.0531,-0.0513,-0.0554,-0.0562,-0.0569,-0.0578,-0.0577,-0.0586,-0.0484,-0.0484,-0.0484,0,0,-0.0491,-0.0483,-0.0484,-0.0479,-0.0479,-0.0492,-0.0474,-0.0485,-0.0505,-0.0479,-0.0498,-0.0498,-0.05,-0.0535,-0.0546,-0.0532,-0.0591,-0.0571,-0.0578,-0.0583,-0.058,-0.059,-0.0599,-0.0485,-0.0485,-0.0485,0,0,-0.0504,-0.0495,-0.0494,-0.0498,-0.0505,-0.0508,-0.0513,-0.0514,-0.052,-0.054,-0.0536,-0.0563,-0.0565,-0.0593,-0.0605,-0.0655,-0.0626,-0.0649,-0.0715,-0.0715,-0.0723,-0.0731,-0.0734,-0.0741,-0.0662,-0.0662,-0.0663,0,-0.0513,-0.0513,-0.0499,-0.0504,-0.052,-0.0517,-0.0538,-0.0548,-0.0555,-0.0577,-0.0556,-0.0597,-0.0599,-0.0671,-0.0692,-0.0679,-0.0664,-0.0685,-0.0727,-0.0734,-0.074,-0.0741,-0.0748,-0.0667,-0.0667,-0.0666,-0.0666,0,-0.0527,-0.0533,-0.0538,-0.0542,-0.0556,-0.0577,-0.0596,-0.0615,-0.0622,-0.0635,-0.0688,-0.0696,-0.0721,-0.0737,-0.0734,-0.0794,-0.0766,-0.0733,-0.0708,-0.0757,-0.0754,-0.0759,-0.0675,-0.0673,-0.0671,-0.067,0,0,-0.0526,-0.0544,-0.0544,-0.0565,-0.0583,-0.0602,-0.0645,-0.0688,-0.0725,-0.0741,-0.0794,-0.0838,-0.0837,-0.085,-0.0858,-0.0877,-0.0917,-0.0831,-0.0829,-0.0845,-0.0917,-0.0822,-0.0818,-0.0886,-0.0887,-0.0888,-0.0903,0,-0.0541,-0.0561,-0.0571,-0.0617,-0.0638,-0.0667,-0.0708,-0.0751,-0.0776,-0.0822,-0.0864,-0.0896,-0.0882,-0.0901,-0.0925,-0.0915,-0.0932,-0.0916,-0.0857,-0.0856,-0.0774,-0.0821,-0.0684,-0.0678,-0.0907,-0.0908,-0.0909,0,-0.0545,-0.056,-0.0599,-0.0665,-0.0678,-0.0707,-0.0782,-0.0822,-0.0889,-0.091,-0.096,-0.0965,-0.1028,-0.0983,-0.1011,-0.0997,-0.0964,-0.0952,-0.0951,-0.083,-0.077,-0.0662,-0.0678,-0.063,-0.0916,-0.0915,-0.0915,0,-0.0541,-0.0588,-0.0622,-0.0641,-0.0705,-0.0741,-0.0781,-0.0844,-0.0889,-0.0957,-0.0981,-0.1043,-0.106,-0.1054,-0.1017,-0.1012,-0.1019,-0.1001,-0.0893,-0.0886,-0.0741,-0.0719,-0.0709,-0.1002,-0.1001,-0.1001,-0.1001,0,-0.055,-0.0583,-0.0622,-0.0642,-0.0702,-0.0747,-0.0815,-0.0863,-0.0932,-0.0975,-0.1017,-0.1043,-0.1069,-0.1067,-0.1041,-0.0978,-0.1028,-0.0915,-0.0885,-0.0771,-0.0752,-0.0678,-0.0689,-0.1002,-0.1002,-0.1002,-0.1002,0,-0.0544,-0.0567,-0.0615,-0.0677,-0.0698,-0.0739,-0.0821,-0.0871,-0.0926,-0.098,-0.0997,-0.105,-0.1024,-0.1029,-0.1012,-0.0983,-0.0891,-0.0899,-0.0767,-0.0721,-0.0574,-0.0595,-0.0571,-0.0548,-0.0807,-0.0805,-0.0803,0,-0.0553,-0.0568,-0.0622,-0.0651,-0.0678,-0.074,-0.0783,-0.0857,-0.0895,-0.0961,-0.098,-0.0981,-0.0922,-0.0885,-0.0833,-0.0772,-0.0776,-0.0642,-0.0608,-0.0556,-0.056,-0.0588,-0.0574,-0.0469,-0.0464,-0.0461,-0.0458,0,-0.0574,-0.0578,-0.0606,-0.0651,-0.0694,-0.0747,-0.08,-0.0816,-0.0886,-0.0872,-0.0842,-0.0792,-0.0744,-0.0593,-0.0539,-0.0517,-0.0576,-0.0563,-0.0541,-0.0324,-0.0323,-0.0287,-0.0485,-0.0425,-0.0428,-0.0431,-0.0433,-0.0434,-0.0586,-0.0598,-0.0623,-0.0669,-0.0711,-0.0738,-0.0724,-0.073,-0.071,-0.0615,-0.0645,-0.0451,-0.0351,-0.0226,-0.0253,-0.0197,-0.0307,-0.0155,-0.0199,-0.0243,-0.0177,-0.0306,-0.0185,-0.0187,-0.0189,-0.019,-0.0191,0,-0.0613,-0.0616,-0.0652,-0.0686,-0.0706,-0.0732,-0.0728,-0.0649,-0.0519,-0.0376,-0.0236,0.0033,0.0179,0.0179,0.022,0.0197,0.0131,0.0153,0.0141,0.0125,0.0009,0.0072,0.0295,0.0295,0.0295,0.0295,0.0295,0.0295,-0.0626,-0.0653,-0.0661,-0.0682,-0.0685,-0.0645,-0.0599,-0.0426,-0.0273,0.006,0.0297,0.0425,0.0453,0.0485,0.0481,0.0439,0.0374,0.0381,0.0277,0.0214,0.0181,0.015,0.0208,0.0456,0.0456,0.0462,0.0462,0.0462]}],[{"header":{"parameterUnit":"m.s-1","parameterCategory":2,"la1":30.2991,"la2":30.254,"lo1":-89.0895,"lo2":-89.0444,"dy":0.0017,"dx":0.0017,"nx":28,"ny":28,"refTime":"2023-11-16T03:00:00:Z","depth":"2","parameterNumber":2,"parameterNumberName":"U-component_of_CURRENTS"},"data":[0,0,0,0,0,0,0,0,0,0,0,0,0,0,0,0,0,0,0,0,0,0,0,0,0,0,0,0,0,0,0,0,0,0,0,0,0,0,0,0,0,0,0,0,0,0,0,0,0,0,0,0,0,0,0,0,0,0,0.096,0.096,0,0.0972,0.0973,0.0973,0.1,0.1001,0.1001,0.1001,0.1007,0.1007,0.1007,0,0,0,0,0,0,0,0,0,0,0,0,0,0.1005,0.1004,0.0961,0.096,0.096,0.0972,0.0973,0.0973,0.1,0.1001,0.1001,0.1001,0.1007,0.1007,0.1007,0,0,0,0,0,0,0,0,0,0,0,0,0,0.1002,0.1004,0.0961,0.0972,0.0973,0.0972,0.0973,0.0974,0.1,0.1001,0.1001,0.1001,0.1007,0.1007,0.1007,0.1,0,0,0.1006,0.1006,0,0,0,0,0,0,0,0,0.1002,0.1,0.0971,0.0971,0.0972,0.0982,0.099,0.0981,0.1,0.0994,0.1001,0.1001,0.0995,0.0996,0.1003,0.1,0.1,0.1006,0.1006,0.1006,0.1006,0,0,0,0,0,0,0,0.1002,0.1,0.0969,0.097,0.0971,0.0992,0.0992,0.0989,0.0995,0.0995,0.0996,0.0991,0.0996,0.1003,0.1003,0.1,0.1006,0.1006,0.1006,0.1006,0.1041,0.1042,0,0,0,0,0,0,0.099,0.1,0.0969,0.0969,0.0984,0.099,0.099,0.0982,0.0996,0.0997,0.0991,0.0992,0.1003,0.1003,0.1003,0.1015,0.1006,0.1006,0.1006,0.104,0.1041,0.1042,0,0,0,0,0,0,0.0991,0.0987,0.0968,0.0982,0.0981,0.0988,0.0979,0.0982,0.1001,0.0992,0.0994,0.1007,0.1003,0.1004,0.1015,0.1015,0.1006,0.1006,0.1039,0.104,0.1042,0.1026,0,0,0,0,0,0,0.0992,0.0987,0.0993,0.0981,0.0979,0.0979,0.0978,0.0982,0.0994,0.0997,0.1007,0.1007,0.1004,0.1016,0.1015,0.1015,0.1006,0.1038,0.104,0.1041,0.1025,0.1027,0.1028,0,0,0,0,0,0.0994,0.0993,0.0993,0.099,0.0982,0.0979,0.0982,0.0991,0.0995,0.1009,0.1014,0.1007,0.1027,0.1016,0.1016,0.1015,0.1037,0.1039,0.1041,0.1025,0.1027,0.1028,0,0,0,0,0,0,0.1011,0.0995,0.0995,0.0989,0.099,0.0983,0.0992,0.0997,0.1014,0.1015,0.1014,0.1015,0.1034,0.103,0.1017,0.1035,0.1033,0.1035,0.1021,0.1023,0.1024,0.1076,0.1006,0,0,0,0,0,0.1016,0.1013,0.1002,0.0998,0.0998,0.0999,0.1004,0.1006,0.1008,0.1017,0.1023,0.103,0.1041,0.1036,0.1052,0.1046,0.1072,0.1051,0.1052,0.1053,0.1098,0.1123,0.1131,0.1049,0.1049,0.1049,0,0,0.1019,0.101,0.1009,0.1003,0.1003,0.1008,0.1004,0.1007,0.1021,0.1013,0.1039,0.1043,0.1048,0.1055,0.1061,0.1047,0.1085,0.1056,0.1056,0.1102,0.1127,0.1135,0.1142,0.1051,0.1051,0.105,0,0,0.1025,0.1017,0.1024,0.1028,0.1026,0.1019,0.1023,0.1024,0.1039,0.1058,0.1058,0.1053,0.108,0.1063,0.1063,0.1079,0.1106,0.1096,0.1123,0.1145,0.1152,0.1158,0.1177,0.1186,0.1077,0.1077,0.1077,0,0.1039,0.1029,0.1027,0.1038,0.1033,0.1026,0.103,0.1047,0.1055,0.1069,0.1072,0.1119,0.108,0.11,0.1098,0.1077,0.1122,0.1105,0.1146,0.1153,0.116,0.1179,0.1188,0.1076,0.1077,0.1077,0.1077,0,0.1047,0.1049,0.1049,0.1055,0.106,0.1052,0.1062,0.1073,0.1083,0.1104,0.1152,0.1136,0.116,0.1136,0.1117,0.1151,0.1176,0.1154,0.1138,0.1167,0.1185,0.1195,0.1076,0.1076,0.1076,0.1076,0,0,0.1054,0.1053,0.1059,0.1075,0.1058,0.1075,0.1076,0.1089,0.1124,0.1155,0.1208,0.1197,0.1217,0.1221,0.12,0.1207,0.1232,0.1213,0.1214,0.1227,0.1319,0.1302,0.1312,0.1241,0.1244,0.1245,0.1301,0,0.1059,0.1078,0.1068,0.1095,0.1101,0.1089,0.1105,0.1127,0.115,0.1205,0.1218,0.1273,0.1245,0.1261,0.1267,0.1243,0.1268,0.1222,0.1297,0.1299,0.1276,0.1325,0.1105,0.1136,0.1311,0.1313,0.1314,0,0.1072,0.108,0.1092,0.1122,0.1127,0.115,0.1174,0.1192,0.1241,0.1266,0.1324,0.1366,0.1376,0.1361,0.1383,0.1374,0.1371,0.1362,0.1363,0.1376,0.1304,0.1142,0.1149,0.1332,0.1331,0.1329,0.1328,0,0.1084,0.1109,0.1117,0.1123,0.1146,0.1166,0.1184,0.1218,0.1247,0.1325,0.1367,0.1426,0.145,0.1478,0.1463,0.1433,0.1522,0.1441,0.1445,0.1442,0.1285,0.1265,0.1511,0.1511,0.1511,0.1511,0.1511,0,0.1073,0.1104,0.1142,0.1154,0.1186,0.1213,0.1259,0.1275,0.1335,0.1385,0.1425,0.149,0.1495,0.1545,0.1524,0.1535,0.1561,0.1493,0.1471,0.127,0.125,0.1449,0.1441,0.1513,0.1513,0.1512,0.1512,0,0.1081,0.1087,0.1122,0.117,0.1186,0.1223,0.1281,0.1334,0.1377,0.1442,0.1476,0.154,0.1591,0.1625,0.1645,0.1592,0.1603,0.1617,0.1391,0.1343,0.1486,0.1477,0.158,0.158,0.158,0.158,0.158,0,0.1084,0.1091,0.1142,0.1157,0.1179,0.1235,0.127,0.133,0.1383,0.1473,0.1516,0.1609,0.1648,0.1692,0.1634,0.1627,0.1682,0.1425,0.1305,0.1533,0.1501,0.1491,0.1482,0.1069,0.1065,0.1062,0.1059,0,0.108,0.1098,0.1115,0.1158,0.1202,0.1239,0.1309,0.1335,0.1411,0.1467,0.1541,0.1586,0.1629,0.1499,0.1513,0.1477,0.1393,0.1358,0.1662,0.1102,0.1061,0.1026,0.1032,0.1029,0.1032,0.1034,0.1036,0.1037,0.1076,0.1094,0.1126,0.1145,0.1198,0.1236,0.1253,0.1331,0.1377,0.1421,0.1483,0.1422,0.1382,0.125,0.123,0.118,0.129,0.1139,0.1145,0.1155,0.1102,0.1066,0.1025,0.1027,0.103,0.1032,0.1034,0,0.1071,0.1097,0.1122,0.1143,0.1172,0.1233,0.128,0.1266,0.1297,0.1294,0.1327,0.103,0.0938,0.0924,0.0775,0.0783,0.0738,0.0743,0.0626,0.0655,0.0681,0.0601,0.0392,0.0391,0.0389,0.0388,0,0,0.1071,0.1081,0.108,0.109,0.1137,0.119,0.1203,0.116,0.1116,0.1002,0.0879,0.0905,0.083,0.0564,0.0557,0.0447,0.0558,0.0423,0.0927,0.0817,0.0842,0.089,0.0798,0,0,0,0,0]},{"header":{"parameterUnit":"m.s-1","parameterCategory":2,"la1":30.2991,"la2":30.254,"lo1":-89.0895,"lo2":-89.0444,"dy":0.0017,"dx":0.0017,"nx":28,"ny":28,"refTime":"2023-11-16T03:00:00:Z","depth":"2","parameterNumber":3,"parameterNumberName":"V-component_of_CURRENTS"},"data":[0,0,0,0,0,0,0,0,0,0,0,0,0,0,0,0,0,0,0,0,0,0,0,0,0,0,0,0,0,0,0,0,0,0,0,0,0,0,0,0,0,0,0,0,0,0,0,0,0,0,0,0,0,0,0,0,0,0,0.0191,0.0191,0,0.0184,0.0184,0.0183,0.0163,0.0163,0.0163,0.0163,0.0165,0.0165,0.0165,0,0,0,0,0,0,0,0,0,0,0,0,0,0.0137,0.0138,0.019,0.0191,0.0191,0.0184,0.0184,0.0183,0.0163,0.0163,0.0163,0.0163,0.0165,0.0165,0.0165,0,0,0,0,0,0,0,0,0,0,0,0,0,0.0144,0.0139,0.019,0.0184,0.0184,0.0184,0.0184,0.0183,0.0163,0.0163,0.0163,0.0163,0.0165,0.0165,0.0165,0.0165,0,0,0.0165,0.0165,0,0,0,0,0,0,0,0,0.0144,0.0146,0.0185,0.0184,0.0184,0.0179,0.0166,0.0179,0.0163,0.0166,0.0163,0.0163,0.0173,0.0173,0.0165,0.0166,0.0166,0.0165,0.0165,0.0165,0.0165,0,0,0,0,0,0,0,0.0144,0.0146,0.0183,0.0185,0.0185,0.0165,0.0166,0.0168,0.0166,0.0166,0.0165,0.0172,0.0173,0.0165,0.0165,0.0166,0.0165,0.0165,0.0165,0.0165,0.0139,0.0138,0,0,0,0,0,0,0.0157,0.0146,0.0183,0.0183,0.0169,0.0167,0.0168,0.0177,0.0166,0.0166,0.0172,0.0172,0.0164,0.0165,0.0165,0.0198,0.0165,0.0165,0.0165,0.0139,0.0138,0.0138,0,0,0,0,0,0,0.0156,0.016,0.0184,0.0168,0.017,0.0169,0.0178,0.0177,0.0161,0.0172,0.0171,0.0158,0.0164,0.0165,0.0168,0.0197,0.0165,0.0165,0.014,0.0139,0.0138,0.0244,0,0,0,0,0,0,0.0154,0.016,0.0153,0.0169,0.0172,0.0183,0.0179,0.0177,0.0168,0.0166,0.016,0.016,0.0164,0.0168,0.0168,0.0197,0.0166,0.0141,0.014,0.0138,0.0242,0.0247,0.0252,0,0,0,0,0,0.0152,0.0153,0.0153,0.0157,0.0169,0.0183,0.0182,0.0177,0.0167,0.0161,0.0161,0.016,0.0158,0.0168,0.0168,0.0198,0.0142,0.014,0.0139,0.024,0.0246,0.0251,0,0,0,0,0,0,0.013,0.0152,0.0152,0.016,0.017,0.0182,0.0179,0.0171,0.0163,0.0164,0.0162,0.0163,0.0169,0.0155,0.0165,0.0176,0.0145,0.0143,0.0221,0.0227,0.0232,0.0196,0.0166,0,0,0,0,0,0.0124,0.0127,0.0148,0.0153,0.0162,0.0165,0.0164,0.0166,0.0171,0.0166,0.0163,0.0156,0.0161,0.0172,0.016,0.018,0.0148,0.0189,0.0194,0.0199,0.0163,0.013,0.013,0.0132,0.0132,0.0132,0,0,0.012,0.013,0.0133,0.0148,0.0157,0.0175,0.0164,0.0173,0.0181,0.017,0.0171,0.0168,0.0162,0.0183,0.0185,0.0182,0.0192,0.0196,0.0202,0.0162,0.0128,0.0128,0.0128,0.0131,0.0131,0.0131,0,0,0.0121,0.0125,0.013,0.0141,0.0158,0.0171,0.0173,0.0183,0.0179,0.0179,0.0181,0.02,0.018,0.0214,0.0221,0.0239,0.0206,0.0221,0.0243,0.0214,0.0214,0.0213,0.0235,0.0235,0.0242,0.0242,0.0242,0,0.0107,0.0133,0.0133,0.0145,0.0166,0.0172,0.0196,0.0193,0.0198,0.0205,0.0182,0.0184,0.0199,0.0251,0.0254,0.0258,0.0224,0.0241,0.0224,0.0222,0.022,0.0241,0.0239,0.0247,0.0246,0.0246,0.0245,0,0.0127,0.014,0.0151,0.0175,0.0187,0.0215,0.0229,0.0242,0.0234,0.0224,0.0235,0.0247,0.025,0.0271,0.0267,0.0276,0.0256,0.0229,0.0221,0.0226,0.0248,0.0245,0.0254,0.0252,0.0251,0.0249,0,0,0.0117,0.0158,0.0158,0.0183,0.0215,0.0233,0.0264,0.0296,0.0315,0.0291,0.0313,0.0323,0.0302,0.0304,0.0323,0.0307,0.0309,0.0249,0.0245,0.0291,0.0252,0.0308,0.031,0.0259,0.0258,0.0257,0.0299,0,0.0137,0.0175,0.0191,0.0236,0.0269,0.0299,0.0328,0.0346,0.0346,0.0361,0.0364,0.0366,0.0324,0.0342,0.0315,0.0308,0.029,0.03,0.0218,0.0216,0.0281,0.0304,0.0347,0.0391,0.0296,0.0295,0.0295,0,0.0155,0.0183,0.0232,0.0291,0.0309,0.0329,0.0398,0.0424,0.0446,0.0437,0.0429,0.0403,0.042,0.0356,0.0317,0.0309,0.0258,0.0239,0.024,0.0234,0.0262,0.0353,0.0388,0.0289,0.029,0.029,0.0291,0,0.0163,0.0214,0.0261,0.028,0.0341,0.0371,0.0407,0.0439,0.0469,0.0481,0.0487,0.0465,0.0465,0.0387,0.0314,0.0307,0.0239,0.0253,0.0259,0.0265,0.0255,0.0263,0.0169,0.0169,0.0169,0.0169,0.0169,0,0.0197,0.0225,0.0265,0.0289,0.0364,0.0379,0.0442,0.0483,0.051,0.0541,0.0511,0.053,0.0443,0.0395,0.0327,0.0285,0.0249,0.0253,0.0266,0.0301,0.0311,0.016,0.0159,0.0171,0.017,0.017,0.017,0,0.0205,0.0232,0.0292,0.0349,0.0373,0.0423,0.0485,0.0525,0.0533,0.0582,0.0583,0.0568,0.053,0.0444,0.0355,0.0327,0.0281,0.025,0.0323,0.0343,0.0341,0.0344,0.0338,0.034,0.0342,0.0343,0.0345,0,0.022,0.0251,0.033,0.0385,0.0415,0.0475,0.0529,0.0553,0.0593,0.0611,0.065,0.0608,0.0626,0.0552,0.0478,0.0419,0.0302,0.0391,0.0397,0.0339,0.0352,0.0352,0.0353,0.0456,0.0458,0.046,0.0461,0,0.0263,0.0283,0.034,0.0443,0.0511,0.0588,0.0649,0.0679,0.0702,0.0721,0.0745,0.0759,0.0717,0.0697,0.06,0.0553,0.0425,0.0429,0.0317,0.0407,0.0453,0.0465,0.0461,0.0476,0.0474,0.0473,0.0472,0.0472,0.0304,0.0356,0.0427,0.0542,0.0614,0.0697,0.0731,0.0782,0.084,0.0889,0.0881,0.0908,0.0863,0.0821,0.069,0.0544,0.0586,0.0534,0.0527,0.0519,0.0525,0.0571,0.0621,0.062,0.062,0.0619,0.0619,0,0.0376,0.0425,0.0524,0.0665,0.0764,0.0754,0.0814,0.0855,0.0907,0.0981,0.1021,0.0994,0.1002,0.0852,0.0703,0.0652,0.061,0.0567,0.0523,0.0515,0.0506,0.0506,0.0599,0.0597,0.0596,0.0595,0,0,0.042,0.0528,0.059,0.0788,0.0849,0.0872,0.0879,0.0958,0.1,0.1074,0.1083,0.1225,0.1073,0.0945,0.0835,0.069,0.0603,0.066,0.0708,0.0668,0.0657,0.0544,0.0544,0,0,0,0,0]}],[{"header":{"parameterUnit":"m.s-1","parameterCategory":2,"la1":30.2991,"la2":30.254,"lo1":-89.0895,"lo2":-89.0444,"dy":0.0017,"dx":0.0017,"nx":28,"ny":28,"refTime":"2023-11-16T03:00:00:Z","depth":"4","parameterNumber":2,"parameterNumberName":"U-component_of_CURRENTS"},"data":[0,0,0,0,0,0,0,0,0,0,0,0,0,0,0,0,0,0,0,0,0,0,0,0,0,0,0,0,0,0,0,0,0,0,0,0,0,0,0,0,0,0,0,0,0,0,0,0,0,0,0,0,0,0,0,0,0,0,0.0229,0.0229,0,0.0201,0.02,0.02,0.0196,0.0197,0.0197,0.0198,0.0236,0.0236,0.0237,0,0,0,0,0,0,0,0,0,0,0,0,0,0.0251,0.0251,0.0229,0.0229,0.0229,0.0201,0.02,0.02,0.0196,0.0197,0.0197,0.0198,0.0236,0.0236,0.0237,0,0,0,0,0,0,0,0,0,0,0,0,0,0.0231,0.025,0.0229,0.0227,0.0226,0.0201,0.02,0.0199,0.0196,0.0197,0.0198,0.0198,0.0236,0.0236,0.0237,0.0222,0,0,0.0239,0.0239,0,0,0,0,0,0,0,0,0.0232,0.0229,0.0227,0.0227,0.0227,0.0206,0.0222,0.0212,0.0195,0.0203,0.0198,0.0199,0.0234,0.0235,0.0221,0.0224,0.0226,0.0239,0.0239,0.024,0.024,0,0,0,0,0,0,0,0.0233,0.023,0.0214,0.0227,0.0227,0.0218,0.0216,0.022,0.0212,0.0203,0.0203,0.0206,0.0234,0.022,0.0222,0.0226,0.0239,0.024,0.024,0.024,0.0285,0.0286,0,0,0,0,0,0,0.0245,0.0232,0.0215,0.0213,0.0236,0.0217,0.0215,0.0209,0.021,0.0212,0.0205,0.0206,0.0219,0.0221,0.0224,0.0248,0.024,0.024,0.0241,0.0285,0.0286,0.0286,0,0,0,0,0,0,0.0245,0.0243,0.0216,0.0226,0.0222,0.0216,0.0209,0.0208,0.0214,0.0213,0.0215,0.0217,0.022,0.0223,0.0236,0.0248,0.0241,0.0241,0.0284,0.0285,0.0286,0.0271,0,0,0,0,0,0,0.0246,0.0243,0.0245,0.0226,0.0222,0.021,0.0209,0.0207,0.0215,0.0216,0.0223,0.0226,0.0221,0.0235,0.0237,0.0249,0.0242,0.0283,0.0284,0.0286,0.027,0.0271,0.0272,0,0,0,0,0,0.0246,0.0241,0.0245,0.0244,0.0224,0.021,0.0207,0.0203,0.0215,0.0214,0.022,0.0227,0.0247,0.0236,0.0238,0.025,0.0282,0.0284,0.0285,0.027,0.0271,0.0272,0,0,0,0,0,0,0.025,0.024,0.0244,0.0236,0.0232,0.0212,0.0213,0.0215,0.0215,0.0224,0.0226,0.0229,0.0251,0.0254,0.0242,0.0271,0.027,0.0273,0.0258,0.0259,0.026,0.0244,0.0242,0,0,0,0,0,0.0254,0.0253,0.024,0.024,0.0237,0.0231,0.0229,0.0226,0.0224,0.0225,0.0231,0.0244,0.0255,0.026,0.027,0.0277,0.0288,0.0292,0.0293,0.0294,0.0284,0.0326,0.0329,0.0292,0.0292,0.0292,0,0,0.0255,0.0254,0.0252,0.0243,0.0239,0.0229,0.0231,0.0231,0.0226,0.0231,0.0235,0.025,0.026,0.0268,0.0279,0.0274,0.0308,0.0296,0.0296,0.0286,0.0328,0.0331,0.0335,0.0294,0.0293,0.0293,0,0,0.0255,0.0258,0.0253,0.0248,0.0249,0.0241,0.0248,0.0237,0.0237,0.0241,0.0249,0.0261,0.0281,0.0275,0.0279,0.0293,0.0317,0.0318,0.0301,0.0342,0.0345,0.0348,0.0352,0.0355,0.0312,0.0312,0.0312,0,0.0264,0.0249,0.0251,0.0245,0.024,0.025,0.0238,0.0236,0.0233,0.0233,0.0247,0.0271,0.0276,0.0279,0.0281,0.0292,0.0318,0.0291,0.0342,0.0345,0.0348,0.0352,0.0356,0.0312,0.0312,0.0312,0.0312,0,0.0249,0.0243,0.0242,0.0237,0.0233,0.0227,0.0223,0.0227,0.024,0.0237,0.0256,0.026,0.0272,0.0284,0.0281,0.0307,0.0319,0.0342,0.0334,0.0351,0.0354,0.0358,0.0311,0.0311,0.0311,0.0311,0,0,0.0255,0.0234,0.0238,0.0227,0.0226,0.0218,0.0219,0.0211,0.0218,0.0228,0.0232,0.0242,0.0257,0.0262,0.0273,0.0297,0.0328,0.0329,0.0332,0.0323,0.0409,0.036,0.036,0.0379,0.038,0.0381,0.0396,0,0.0247,0.0227,0.022,0.0204,0.0187,0.0193,0.0192,0.0193,0.0206,0.0215,0.0225,0.024,0.0248,0.0261,0.0285,0.0325,0.0342,0.032,0.0402,0.0403,0.0351,0.0364,0.0384,0.0399,0.04,0.0401,0.0402,0,0.0232,0.022,0.0198,0.0178,0.0173,0.017,0.0174,0.0173,0.0188,0.0202,0.0219,0.0236,0.0249,0.0271,0.0329,0.0326,0.0361,0.0389,0.0392,0.0353,0.0363,0.0385,0.041,0.0409,0.0408,0.0408,0.0407,0,0.0223,0.0203,0.0187,0.0179,0.0162,0.016,0.0159,0.0172,0.0177,0.0197,0.0215,0.0238,0.0261,0.0313,0.035,0.036,0.0423,0.0443,0.0423,0.0419,0.0464,0.0461,0.049,0.049,0.049,0.049,0.049,0,0.0203,0.0188,0.0184,0.0168,0.0158,0.0154,0.0155,0.0161,0.018,0.0183,0.0211,0.0219,0.0286,0.032,0.0355,0.0389,0.0428,0.0412,0.0425,0.0455,0.0452,0.0466,0.0463,0.0491,0.0491,0.0491,0.0491,0,0.0183,0.018,0.0156,0.0147,0.0148,0.0143,0.0147,0.0147,0.0177,0.0186,0.0193,0.0225,0.026,0.0306,0.0378,0.0392,0.0429,0.0433,0.0431,0.0445,0.0394,0.039,0.0411,0.0409,0.0408,0.0407,0.0406,0,0.016,0.015,0.0147,0.014,0.0134,0.0132,0.0129,0.0145,0.0149,0.0176,0.0175,0.021,0.0227,0.0276,0.0332,0.0383,0.0394,0.0409,0.0419,0.0377,0.0388,0.0386,0.0384,0.0404,0.0404,0.0404,0.0403,0,0.0116,0.013,0.0119,0.0112,0.0106,0.0093,0.0092,0.0095,0.0111,0.015,0.0148,0.0167,0.02,0.0241,0.0285,0.0324,0.0397,0.0396,0.0399,0.0409,0.037,0.0381,0.0381,0.0399,0.04,0.04,0.04,0,0.0095,0.0086,0.0085,0.0077,0.0067,0.0042,0.0047,0.0046,0.0054,0.0098,0.009,0.0129,0.0171,0.0209,0.0243,0.0279,0.0291,0.0306,0.0314,0.032,0.0288,0.0224,0.0214,0,0,0,0,0,0.0076,0.0059,0.0043,0.0024,0.0015,0.0005,0.0013,0.0025,0.0055,0.0046,0.0071,0.0091,0.0134,0.0156,0.018,0.0219,0.0297,0.0248,0.0318,0.0375,0.038,0.0354,0,0,0,0,0,0,0.0058,0.0043,0.003,-0.002,-0.0039,-0.0063,-0.0064,-0.0043,-0.0039,0.0005,0.0028,0.0081,0.0125,0.0111,0.0172,0.0186,0.023,0.0288,0.0288,0.0372,0.0377,0.0381,0.0356,0,0,0,0,0]},{"header":{"parameterUnit":"m.s-1","parameterCategory":2,"la1":30.2991,"la2":30.254,"lo1":-89.0895,"lo2":-89.0444,"dy":0.0017,"dx":0.0017,"nx":28,"ny":28,"refTime":"2023-11-16T03:00:00:Z","depth":"4","parameterNumber":3,"parameterNumberName":"V-component_of_CURRENTS"},"data":[0,0,0,0,0,0,0,0,0,0,0,0,0,0,0,0,0,0,0,0,0,0,0,0,0,0,0,0,0,0,0,0,0,0,0,0,0,0,0,0,0,0,0,0,0,0,0,0,0,0,0,0,0,0,0,0,0,0,0.0419,0.0419,0,0.0451,0.0452,0.0452,0.0467,0.0467,0.0467,0.0467,0.0486,0.0487,0.0487,0,0,0,0,0,0,0,0,0,0,0,0,0,0.0369,0.037,0.0419,0.0419,0.0419,0.0451,0.0452,0.0452,0.0467,0.0467,0.0467,0.0467,0.0486,0.0487,0.0487,0,0,0,0,0,0,0,0,0,0,0,0,0,0.0396,0.0371,0.0418,0.043,0.0432,0.0451,0.0452,0.0452,0.0467,0.0467,0.0467,0.0467,0.0486,0.0487,0.0487,0.0495,0,0,0.049,0.049,0,0,0,0,0,0,0,0,0.0394,0.0398,0.0428,0.0429,0.0431,0.0455,0.0441,0.0466,0.0467,0.0454,0.0467,0.0467,0.0474,0.0476,0.0483,0.0496,0.0497,0.049,0.0491,0.0491,0.0491,0,0,0,0,0,0,0,0.0392,0.0396,0.0432,0.0429,0.043,0.0434,0.0438,0.0446,0.0465,0.0456,0.0457,0.0459,0.0475,0.0482,0.0484,0.0497,0.049,0.0491,0.0491,0.0492,0.0528,0.0528,0,0,0,0,0,0,0.0388,0.0395,0.0431,0.0433,0.0411,0.0435,0.0439,0.0448,0.0465,0.0467,0.0459,0.046,0.0481,0.0483,0.0484,0.0529,0.0491,0.0492,0.0492,0.0528,0.0528,0.0529,0,0,0,0,0,0,0.0387,0.0391,0.043,0.0414,0.0419,0.0436,0.0445,0.0448,0.0461,0.0468,0.047,0.047,0.0481,0.0483,0.0507,0.0528,0.0492,0.0493,0.0527,0.0528,0.0528,0.0595,0,0,0,0,0,0,0.0385,0.039,0.0396,0.0414,0.042,0.0449,0.0446,0.0449,0.0462,0.0464,0.0477,0.0479,0.0481,0.0506,0.0508,0.0529,0.0494,0.0526,0.0527,0.0528,0.0592,0.0598,0.0603,0,0,0,0,0,0.0383,0.0395,0.0396,0.04,0.0426,0.045,0.0454,0.0465,0.0463,0.0475,0.0488,0.0479,0.0512,0.0508,0.051,0.0531,0.0526,0.0527,0.0528,0.059,0.0597,0.0603,0,0,0,0,0,0,0.038,0.0398,0.0399,0.0417,0.0433,0.0452,0.0465,0.0469,0.0488,0.049,0.0493,0.0496,0.0522,0.0513,0.0508,0.054,0.0514,0.0515,0.056,0.0567,0.0572,0.0577,0.0494,0,0,0,0,0,0.0379,0.0392,0.041,0.0424,0.0434,0.0449,0.0459,0.0468,0.0485,0.0494,0.0503,0.0511,0.0527,0.0537,0.0544,0.0568,0.0555,0.0577,0.0583,0.0587,0.0591,0.0583,0.0588,0.0532,0.0532,0.0532,0,0,0.0385,0.0393,0.0403,0.0424,0.0438,0.0462,0.0456,0.0478,0.0499,0.0493,0.0525,0.0532,0.0536,0.0566,0.0575,0.0563,0.06,0.0589,0.0593,0.0594,0.0585,0.059,0.0595,0.0532,0.0532,0.0532,0,0,0.04,0.0409,0.0425,0.0441,0.0461,0.0474,0.0481,0.0505,0.0517,0.0548,0.0549,0.0572,0.0589,0.0605,0.0612,0.0647,0.0627,0.0642,0.068,0.0673,0.0677,0.0681,0.069,0.0694,0.0647,0.0647,0.0647,0,0.04,0.0427,0.0434,0.0454,0.0473,0.0481,0.0509,0.0525,0.0553,0.0569,0.0564,0.0605,0.061,0.0651,0.0668,0.0662,0.0654,0.0661,0.0681,0.0684,0.0687,0.0695,0.0699,0.0651,0.065,0.065,0.065,0,0.043,0.0453,0.0467,0.0495,0.0515,0.0542,0.0564,0.0585,0.0598,0.0614,0.0653,0.0666,0.0689,0.0696,0.0698,0.0727,0.0716,0.0689,0.0668,0.0697,0.0703,0.0706,0.0655,0.0654,0.0653,0.0652,0,0,0.0427,0.0478,0.0483,0.0506,0.0541,0.0563,0.0599,0.0638,0.0663,0.0687,0.072,0.0758,0.0759,0.0766,0.0769,0.0772,0.0799,0.0745,0.0743,0.0762,0.0793,0.0753,0.0752,0.0772,0.0772,0.0772,0.0796,0,0.0449,0.0495,0.0517,0.0568,0.0598,0.0622,0.0656,0.0689,0.071,0.0741,0.076,0.0789,0.0786,0.0801,0.0807,0.0797,0.0805,0.0795,0.0756,0.0755,0.0721,0.0753,0.0774,0.0798,0.0799,0.0799,0.0799,0,0.0471,0.0501,0.0556,0.0611,0.0627,0.0661,0.0715,0.0746,0.0785,0.0799,0.083,0.0833,0.0867,0.084,0.0852,0.0844,0.0828,0.0816,0.0815,0.0754,0.0719,0.0757,0.0804,0.0804,0.0803,0.0803,0.0803,0,0.0468,0.0527,0.0574,0.0594,0.0657,0.0691,0.0726,0.077,0.0802,0.0835,0.0856,0.0881,0.09,0.0882,0.0878,0.0858,0.0877,0.0838,0.0792,0.079,0.079,0.0785,0.0836,0.0836,0.0836,0.0836,0.0836,0,0.0481,0.0519,0.0581,0.0608,0.0667,0.0704,0.0766,0.0794,0.0841,0.0887,0.0888,0.0923,0.0907,0.0919,0.0894,0.0867,0.0891,0.0808,0.0792,0.0819,0.0817,0.0793,0.0787,0.0837,0.0836,0.0836,0.0836,0,0.0477,0.0516,0.0573,0.0644,0.067,0.0714,0.0796,0.0839,0.0871,0.0927,0.094,0.0965,0.0975,0.0964,0.0945,0.0891,0.0862,0.0845,0.0906,0.0891,0.0774,0.0772,0.0779,0.0777,0.0776,0.0775,0.0775,0,0.0483,0.0512,0.0594,0.0633,0.0673,0.0742,0.0796,0.0851,0.0896,0.096,0.0989,0.1013,0.1024,0.0976,0.0951,0.0898,0.0874,0.0845,0.078,0.0785,0.0768,0.0768,0.0767,0.0773,0.0773,0.0772,0.0772,0,0.0494,0.0524,0.0569,0.0649,0.0715,0.0788,0.0865,0.0891,0.0959,0.0986,0.1016,0.0993,0.1004,0.0965,0.0933,0.0891,0.0849,0.0832,0.0833,0.0772,0.0778,0.0762,0.0763,0.0768,0.0769,0.0769,0.077,0,0.0502,0.0535,0.0598,0.0669,0.0747,0.0825,0.0859,0.0918,0.0961,0.1009,0.1027,0.1031,0.1043,0.0965,0.0944,0.0892,0.0846,0.0779,0.0781,0.0785,0.0765,0.0772,0.0756,0,0,0,0,0,0.0512,0.0557,0.0619,0.0706,0.078,0.0838,0.0909,0.0938,0.0989,0.0999,0.1007,0.1012,0.0955,0.0948,0.0885,0.0915,0.0844,0.0833,0.0769,0.0748,0.0752,0.0722,0,0,0,0,0,0,0.0523,0.0581,0.0619,0.0723,0.0789,0.0887,0.0934,0.0967,0.0966,0.0993,0.0972,0.096,0.0923,0.1002,0.088,0.0869,0.0803,0.0822,0.0818,0.0745,0.0749,0.0753,0.0723,0,0,0,0,0]}]]